Terminal Aerodrome Forecast
Issued by NWS

Home | Current Version | Previous Version | Text Only | Print | Product List | Glossary Off
Versions: 1 2 3 4 5 6 7 8 9 10 11 12 13 14 15 16

000
FTUS43 KMPX 272343
TAFRWF
TAF
KRWF 272343Z 2800/2824 19006KT P6SM BKN035
     FM280900 16004KT 6SM BR VCSH SCT030 BKN070
     FM281400 18010KT P6SM SCT025 SCT100=

USA.gov is the U.S. government's official web portal to all federal, state and local government web resources and services.